星链-2192 (STARLINK-2192 )

导读 | 豆包AI

STARLINK-2192是美国SpaceX公司星链星座中的一颗低轨通信卫星,于2021年3月4日发射入轨。作为星链网络的组成部分,它运行在近地轨道,为全球偏远及网络覆盖薄弱区域提供宽带互联网接入服务,支撑卫星直连手机等创新通信服务的部署,推动全球空天地一体化通信网络构建,是SpaceX大规模低轨卫星星座组网进程中的重要节点卫星。

Basic Information
目录编号:
47769
目录名称:
STARLINK-2192
国际标识:
2021-017AZ
轨道中心:
EARTH
卫星名称:
星链-2192
卫星全名:
星链-2192 (STARLINK-2192 )
卫星状态:
已陨落 最后检测时间 2025-01-18
发射日期:
2021-03-04 UTC
国别 :
美国 (US)
星等 :
--
Orbit Information
数据来源 国际轨道数据
星历时间: 2025-01-19T06:52:41+0800
轨道信息已过期451天
半长轴: 6530.73km
偏心率: 0.0005879
轨道倾角: 53.020°
近地点辐角 273.695°
升交点赤经 222.454°
平近点角 197.346°
近地点: 148.755km
远地点: 156.435km
周期: 87.539分钟
每日圈数: 16.449785
Detailed Information
固有亮度:
5
最大亮度:
2.5
卫星平台:
Starlink V1.0
覆盖范围:
全球
运营商:
太空探索技术公司
运营商所在国:
美国
制造商(研发单位):
太空探索技术公司
制造商所在国:
美国
使用方式:
暂无
Satellite Introduction
星链(Starlink)计划是由太空探索技术公司(SpaceX)提出的一个巨型低轨卫星互联网星座项目,计划在2019年至2024年间在太空搭建由约1.2万颗卫星组成的“星链”网络,其中1584颗将部署在地球上空550千米处的近地轨道,并从2020年开始工作。该卫星仍在工作。